Tracking 19795 objects as of 20-Jul-2019
HD Live streaming from Space Station
objects crossing your sky now

TELSTAR 11 (ORION 1)

Track TELSTAR 11 (ORION 1) now!
TELSTAR 11 (ORION 1) is classified as:


NORAD ID: 23413
Int'l Code: 1994-079A
Perigee: 36,188.5 km
Apogee: 36,361.2 km
Inclination: 11.3 °
Period: 1,460.7 minutes
Semi major axis: 42645 km
RCS: 10.4526 m2 (large)
Launch date: November 29, 1994
Source: United States (US)
Launch site: AIR FORCE EASTERN TEST RANGE (AFETR)

34 Ku-band; Europe, United States to Rockies, parts of Canada and Mexico; broadcast, business, high-speed Internet.
aabbcc
Your satellite tracking list
Your tracking list is empty




NASA's NSSDC Master Catalog

Two Line Element Set (TLE):
1 23413U 94079A   19199.51657044 -.00000042  00000-0  00000+0 0  9999
2 23413  11.3452  33.8572 0020244 327.1825  32.3103  0.98579834 89090
Source of the keplerian elements: AFSPC